Location: Moscow
(44.4414°N, 72.7154°W)
Time: 00:22:41
(UTC+00:00)

Courier 1B - Pass Details

Date: 12 November 2024
Orbit: 962 x 1208 km, 28.3° (Epoch: 08 December)

Event Time Altitude Azimuth Distance (km) Brightness Sun altitude
Rises 23:40:15 0° 248° (WSW) 3,645 11.7 -24.0°
Reaches altitude 10° 23:44:54 10° 218° (SW) 2,725 10.3 -24.8°
Maximum altitude 23:47:08 12° 198° (SSW) 2,609 9.9 -25.2°
Drops below altitude 10° 23:49:24 10° 178° (S) 2,765 9.8 -25.6°
Enters shadow 23:51:26 - 163° (SSE) 3,105 10.0 -26.0°
